Flag for Canada Weather past 2 weeks in Dieppe, New Brunswick, Canada

Now
46 °F

Drizzle. Fog.


Feels Like: 40 °F
Forecast: 41 / 48 °F
Wind: 16 mph from North

Location: Moncton

Current Time: Oct 25, 2014 at 3:24:00 PM

Latest Report: Oct 25, 2014 at 3:00 PM


Visibility: 6 mi

Pressure: 29.51 "Hg

Humidity: 93%

Dew point: 45 °F

Location of DieppeLocation

Historic Weather in Dieppe — Graph

°F

Dieppe temperature yesterday

Maximum temperature yesterday: 52 °F (at 12:00 PM)
Minimum temperature yesterday: 48 °F (at 8:00 PM)
Average temperature yesterday: 50 °F

Past Weeks' High & Low Weather Summary

 TemperatureHumidityPressure
High75 °F (Oct 15, 3:00 PM)100% (Oct 12, 4:00 AM)30.38 "Hg (Oct 12, 4:00 AM)
Low30 °F (Oct 21, 7:00 AM)39% (Oct 13, 2:00 PM)29.45 "Hg (Oct 19, 3:00 AM)
Average51 °F82%29.94 "Hg
* Reported Oct 10 2:00 PM — Oct 25 2:00 PM, Dieppe, Weather by CustomWeather, © 2014

Note: Actual official high and low records may vary slightly from our data, if they occured in-between our weather recording intervals... More about our weather records

Advertising

Dieppe weather history for previous 24 hours

 ConditionsComfort  
Time TempWeatherWind HumidityBarometerVisibility
2:00 PM
Oct 25
46 °FDrizzle. Fog.15 mph93%29.52 "Hg2 mi
1:00 PM46 °FDrizzle. Fog.14 mph93%29.52 "Hg2 mi
12:00 PM46 °FDrizzle. Fog.12 mph100%29.52 "Hg1 mi
11:00 AM46 °FDrizzle. Fog.12 mph93%29.53 "Hg1 mi
10:00 AM46 °FDrizzle. Fog.12 mph93%29.52 "Hg1 mi
9:00 AM46 °FDrizzle. Fog.15 mph93%29.52 "Hg1 mi
8:00 AM46 °FDrizzle. Fog.9 mph93%29.51 "Hg2 mi
7:00 AM46 °FDrizzle. Fog.13 mph93%29.49 "Hg2 mi
6:00 AM46 °FDrizzle. Fog.14 mph93%29.49 "Hg1 mi
5:00 AM46 °FDrizzle. Sandstorm.12 mph93%29.49 "Hg1 mi
4:00 AM46 °FDrizzle. Fog.14 mph93%29.48 "Hg2 mi
3:00 AM46 °FDrizzle. Fog.14 mph93%29.48 "Hg1 mi
2:00 AM46 °FDrizzle. Fog.16 mph93%29.49 "Hg1 mi
1:00 AM46 °FDrizzle. Fog.13 mph100%29.49 "Hg1 mi
12:00 AM48 °FDrizzle. Fog.15 mph94%29.49 "Hg2 mi
11:00 PM
Oct 24
48 °FDrizzle. Fog.16 mph94%29.49 "Hg2 mi
10:00 PM48 °FDrizzle. Fog.15 mph94%29.51 "Hg15 mi
9:57 PM48 °FDrizzle. Fog.17 mph94%29.51 "Hg15 mi
9:00 PM48 °FDrizzle. Fog.17 mph94%29.51 "Hg2 mi
8:00 PM48 °FDrizzle. Fog.17 mph100%29.50 "Hg1 mi
7:00 PM50 °FDrizzle. Fog.14 mph94%29.52 "Hg1 mi
6:00 PM50 °FDrizzle. Fog.15 mph94%29.52 "Hg1 mi
5:00 PM50 °FDrizzle. Fog.12 mph94%29.53 "Hg1 mi
4:00 PM50 °FDrizzle. Fog.17 mph94%29.53 "Hg1 mi
3:00 PM50 °FDrizzle. Fog.14 mph94%29.56 "Hg1 mi
Weather by CustomWeather, © 2014

See weather overviewHow to use our weather pages